CAPE
831 830 1303 1192 1316 1151 1599 1236 1240 1469 1047 1388 350 293 143 1790 1656 1562 1428 1846 2131 1856 1882 1788 1974 1859 1772 1744 1963 2032 2076 2092 2066 2133 2107 1779 2098 1939 1689 2052 753 1196 1944
892 626 1635 1320 1512 1297 1612 1671 1489 1597 1167 1585 1186 1944 1942 1570 1883 1829 1880 2076 2210 1982 1867 1987 1785 1764 1923 1862 1925 2028 1929 2082 2485 2329 2049 2084 1880 2060 1801 1993 517 1253 1584
537 422 776 1795 1653 1569 1636 1497 1459 1754 1743 1704 1811 1663 1831 1711 1210 1650 1915 1939 1797 1704 1812 1961 1897 2011 1796 1913 2037 1990 2095 2218 2324 2361 2904 1432 1504 1801 2120 2192 1714 454 707
422 299 476 2291 1679 1697 1843 1705 1306 1623 1588 1420 1558 1515 1803 1829 1804 1851 1919 1900 1861 1777 1987 1829 1598 1849 1947 1986 1693 1869 1983 1973 1798 1955 1788 979 1619 1804 1756 1912 1868 2056 1961
241 552 1197 2323 1810 1710 1719 1677 1570 1208 1249 1253 1299 1645 1758 1730 1591 1936 1917 1905 1727 1957 1919 1727 1953 1953 1756 1835 1938 2098 1941 1846 1970 1892 1046 355 34 688 1799 2253 2098 1747 2045
422 867 1711 2201 1957 1887 2063 1711 1194 1132 826 1050 1246 1648 1778 1884 1957 1916 1996 1797 1611 1647 1654 1801 1723 1794 1816 1922 2014 1806 1648 1649 2113 1536 1513 2269 1829 1275 809 1644 1773 2084 2203
893 835 1227 2368 2136 1886 1743 1848 1713 952 1258 982 1498 1663 1988 1952 1920 1832 1980 1934 1715 1709 1843 1844 1776 1892 2018 2074 1969 1457 1376 1548 1465 1732 1317 1443 1864 2235 2160 1805 1572 1489 1506
623 697 1230 2275 2277 1910 1735 1936 1879 1470 1159 1501 1389 1707 1987 1944 2000 1898 1826 1736 1749 1796 1872 1801 1793 1694 1926 1959 1779 1426 1271 1369 1303 1777 1414 1532 2153 2257 2258 2197 2164 2052 1995
599 702 930 1564 2098 1645 1628 1989 1996 1710 1383 1592 1924 1729 1601 1922 1888 2006 1945 2020 1928 1584 1357 1677 1903 1976 1941 1745 1282 887 1226 1704 1823 1669 937 1203 2291 1961 1636 1210 1441 2032 2101
575 636 939 942 798 915 780 2105 2021 1859 1920 1922 2040 1879 2104 1729 1969 1904 2345 1858 1730 1758 1695 1754 1672 1985 2194 1753 1213 1252 1396 1647 1280 1120 996 1258 2087 1965 1959 2011 1921 2138 1865
647 667 780 817 692 947 1183 2063 2077 1892 2077 1999 1862 1722 2157 637 1526 1897 1920 1949 1824 2047 1732 1565 1496 1577 2136 2211 2024 1307 1248 894 594 898 817 2272 1933 1905 2062 1043 1501 1804 1913
651 661 699 684 771 1348 1031 1777 1911 1649 1646 1742 1569 1880 1886 836 1787 1380 1647 1819 1782 1683 1736 1556 1447 1644 1866 1456 1417 1818 1848 371 348 702 1358 2365 1793 1919 2021 1326 1910 1979 1916
563 667 609 628 1248 662 1338 1160 1741 1704 2048 2469 2194 2337 951 763 648 1286 1067 1437 1233 1642 969 973 1382 1617 1955 1412 1214 2211 984 1405 563 432 1887 2345 1863 1590 1857 1930 1745 1841 1943
627 603 607 522 1072 891 943 911 855 1683 1832 2088 1961 1420 1621 1078 1470 1645 1807 1734 2224 1230 959 1471 1214 1251 1912 1389 1138 1625 1831 1104 1327 1289 1226 2345 1655 1198 1587 1774 1640 1861 1889
554 601 600 668 1167 1143 1065 844 805 727 2009 1752 1882 818 2331 1529 875 934 1216 1413 1639 518 609 398 1277 1201 1227 1426 1801 1725 1305 1766 1813 1053 1260 1499 1385 1139 1167 1727 1796 1561 1831
501 580 683 890 1193 998 1245 923 856 631 1280 1799 2216 1339 1789 2309 2027 1628 2005 1910 1557 680 478 1041 334 207 611 184 318 749 1397 1256 804 890 1242 1326 1176 801 640 734 1584 1843 1662
546 535 786 839 810 1135 1209 1316 758 592 763 845 1838 1974 1569 1987 1046 1104 2020 1914 1537 1931 953 495 996 1280 1631 640 850 172 643 598 888 1029 921 615 1155 1212 1114 674 623 1306 1535
666 777 857 509 646 783 672 1000 449 390 887 1021 1673 1377 1552 1652 1973 1361 554 1590 2129 1627 511 542 951 1819 752 717 224 183 158 616 521 879 648 412 243 732 1141 1481 1061 470 991
996 1199 1155 907 710 848 1013 922 670 509 928 1935 1704 1565 1974 2128 1797 1725 1114 715 1181 851 1847 1384 1699 2152 2304 955 118 78 29 51 492 105 143 267 219 206 374 770 1263 1245 334
1444 1499 1593 1352 1096 1212 1115 1348 773 991 1127 1681 1825 2333 2683 2088 2208 2184 2529 1600 1209 1428 1771 2064 1715 2131 2058 1554 388 93 634 512 285 487 12 213 109 162 116 228 178 390 480
1744 1895 1791 1732 1967 1482 1334 1364 1233 1163 1284 1431 2026 3107 2709 2720 2979 2428 2314 1913 1791 1751 2212 1886 1338 2068 2347 1370 277 185 1156 1196 1394 1033 781 238 75 62 171 56 36 241 276
1846 2241 2332 2113 2091 1896 1420 1636 1421 1407 1230 1376 1442 2962 2237 2376 2298 2219 2644 2655 2215 2146 2556 2260 2435 2980 2519 2274 1114 189 242 488 215 727 696 290 340 71 29 151 0 54 94
1687 2228 2686 2602 2568 2597 2594 1791 2022 2021 1970 1551 1515 1792 2288 2510 2579 2568 2613 3099 2808 2303 1744 1829 1776 2028 2300 1792 160 469 981 691 642 782 190 365 744 113 19 40 199 68 128
1588 2008 2459 2983 2583 2501 2714 2634 3890 2550 2532 2059 1937 1577 1881 2668 2713 2390 2838 2677 3334 2400 1927 2093 2320 2625 2349 2478 827 139 656 795 1500 1541 1900 1916 965 161 29 37 109 84 178
1604 1753 2243 3366 3798 3443 3151 3401 2699 3302 2474 2278 2283 2812 3610 3388 2782 2565 2759 2821 3357 2581 2873 2088 1927 2710 2279 3061 2876 1489 544 1277 1645 1678 2230 1243 1074 1151 620 218 357 118 46
1705 1862 2071 3612 4212 3916 3377 2859 4173 4299 3554 2598 2763 3002 2068 2397 2219 3310 2577 3660 3578 2601 2834 2424 2565 2369 2995 2233 1791 2127 2003 1650 2592 2148 1140 1256 1198 1341 1007 1000 613 450 492
CIN
-0 -15 -3 -0 -0 -4 -1 -6 -5 -0 -4 -1 -27 -40 -70 -1 -1 -7 -5 -1 -0 -1 -0 -2 -0 -1 -0 -0 -0 -0 -0 -0 -0 -0 -0 -0 -0 -0 -2 -0 -7 -0 -0
-0 -14 -1 -0 -0 -0 -2 -0 -0 -2 -4 -2 -3 -0 -2 -1 -0 -2 -1 -0 -0 -1 -1 -0 -0 -1 -0 -0 -0 -0 -0 -1 -0 -0 -0 -0 -1 -1 -0 -1 -25 -1 -0
-2 -43 -17 -0 -0 -0 -3 -0 -0 -0 -2 -1 -0 -2 -0 -0 -2 -1 -0 -0 -1 -0 -0 -0 -0 -0 -0 -0 -0 -0 -0 -5 -9 -9 -2 -0 -0 -3 -0 -1 -1 -60 -20
-1 -16 -27 -0 -0 -0 -0 -0 -0 -1 -0 -0 -6 -4 -0 -0 -0 -0 -0 -0 -1 -0 -0 -0 -0 -0 -0 -0 -1 -4 -8 -8 -4 -8 -7 -0 -0 -0 -5 -0 -0 -0 -0
-1 -0 -24 -0 -0 -0 -0 -0 -1 -8 -2 -2 -5 -0 -0 -0 -1 -0 -0 -0 -0 -0 -0 -0 -0 -0 -1 -0 -0 -2 -19 -18 -13 -31 -32 -7 -17 -35 -2 -1 -4 -2 -1
-0 -1 -16 -0 -0 -0 -0 -1 -5 -2 -7 -8 -3 -1 -0 -0 -0 -1 -0 -0 -0 -0 -0 -0 -0 -0 -0 -0 -0 -8 -17 -25 -26 -2 -2 -6 -0 -6 -19 -0 -4 -0 -0
-0 -10 -8 -0 -0 -0 -0 -0 -0 -6 -0 -9 -0 -1 -0 -0 -0 -0 -0 -1 -0 -0 -0 -1 -0 -0 -0 -0 -0 -15 -23 -32 -29 -5 -2 -0 -0 -0 -0 -0 -2 -2 -2
-0 -0 -2 -0 -0 -0 -1 -0 -0 -1 -4 -0 -4 -1 -0 -0 -0 -1 -0 -0 -0 -2 -1 -1 -0 -0 -0 -0 -0 -15 -36 -24 -14 -12 -1 -0 -1 -0 -0 -0 -0 -0 -0
-0 -0 -0 -0 -0 -0 -0 -0 -0 -0 -3 -0 -0 -0 -0 -0 -0 -0 -0 -0 -0 -1 -1 -0 -0 -0 -0 -0 -14 -31 -40 -23 -7 -0 -1 -0 -1 -0 -0 -3 -2 -0 -0
-0 -0 -1 -0 -1 -1 -6 -0 -0 -0 -0 -0 -0 -2 -0 -1 -4 -3 -3 -0 -1 -3 -2 -0 -4 -0 -0 -0 -17 -30 -41 -30 -9 -9 -44 -31 -3 -0 -0 -0 -0 -0 -0
-0 -1 -0 -0 -7 -1 -0 -0 -0 -1 -0 -0 -3 -11 -5 -0 -0 -1 -3 -0 -0 -0 -7 -5 -9 -9 -0 -0 -4 -41 -56 -2 -0 -1 -32 -16 -3 -0 -0 -11 -0 -0 -0
-0 -0 -0 -0 -3 -0 -0 -1 -0 -1 -0 -0 -0 -0 -0 -1 -20 -0 -2 -0 -2 -8 -13 -21 -23 -11 -7 -0 -0 -31 -4 -6 -1 -0 -22 -16 -1 -0 -0 -5 -0 -0 -0
-0 -0 -0 -0 -0 -0 -0 -0 -0 -0 -0 -3 -1 -3 -0 -0 -0 -4 -0 -0 -3 -21 -5 -15 -7 -6 -16 -9 -0 -13 -1 -4 -6 -1 -35 -9 -3 -0 -1 -0 -0 -0 -0
-0 -0 -0 -12 -0 -0 -0 -0 -0 -0 -20 -6 -0 -0 -1 -4 -35 -1 -33 -9 -20 -9 -4 -8 -3 -0 -1 -0 -0 -4 -5 -49 -42 -29 -45 -13 -8 -9 -0 -3 -0 -0 -0
-2 -1 -0 -13 -1 -0 -0 -0 -0 -0 -4 -1 -0 -0 -24 -5 -0 -0 -3 -1 -2 -1 -1 -2 -13 -8 -0 -1 -0 -4 -0 -0 -24 -39 -33 -16 -19 -18 -13 -0 -1 -2 -1
-10 -5 -0 -6 -9 -2 -0 -1 -0 -0 -1 -10 -14 -2 -2 -15 -2 -22 -4 -13 -11 -1 -1 -5 -96 -85 -19 -58 -95 -57 -4 -39 -80 -68 -32 -21 -16 -33 -32 -24 -6 -0 -2
-22 -19 -1 -9 -18 -3 -1 -0 -0 -0 -0 -1 -15 -0 -0 -1 -6 -1 -6 -12 -10 -13 -0 -11 -11 -5 -2 -37 -25 -89 -5 -37 -20 -37 -38 -33 -11 -8 -17 -17 -25 -10 -3
-19 -18 -11 -22 -11 -17 -11 -2 -8 -8 -0 -0 -1 -0 -0 -0 -2 -1 -0 -9 -6 -2 -0 -0 -0 -9 -2 -34 -78 -88 -85 -7 -9 -16 -6 -29 -41 -13 -8 -1 -8 -21 -5
-27 -26 -32 -27 -19 -21 -7 -1 -5 -5 -1 -13 -2 -4 -0 -0 -0 -0 -0 -1 -1 -0 -4 -0 -3 -4 -2 -8 -93 -114 -150 -93 -2 -39 -70 -49 -18 -24 -8 -7 -3 -0 -17
-22 -33 -38 -39 -38 -22 -27 -4 -4 -0 -0 -1 -6 -23 -2 -0 -0 -0 -34 -4 -0 -0 -6 -25 -4 -0 -0 -0 -62 -84 -8 -11 -21 -2 -122 -34 -50 -18 -13 -1 -21 -17 -3
-13 -15 -36 -43 -28 -42 -33 -16 -0 -0 -0 -0 -13 -1 -0 -0 -6 -0 -7 -11 -0 -0 -3 -1 -9 -0 -0 -3 -41 -59 -10 -0 -3 -1 -1 -11 -58 -46 -3 -19 -55 -13 -11
-17 -5 -24 -40 -46 -52 -41 -11 -0 -0 -0 -0 -0 -5 -0 -0 -0 -0 -0 -2 -0 -6 -1 -0 -0 -0 -0 -1 -0 -58 -44 -26 -40 -10 -41 -49 -9 -44 -51 -0 -16 -27 -33
-26 -16 -14 -32 -42 -39 -6 -27 -8 -0 -0 -0 -0 -0 -0 -0 -0 -0 -0 -0 -6 -0 -1 -0 -0 -0 -0 -0 -116 -46 -6 -4 -11 -26 -74 -30 -4 -45 -97 -39 -1 -7 -7
-55 -30 -16 -20 -40 -50 -26 -5 -0 -1 -0 -13 -0 -0 -0 -1 -0 -0 -0 -0 -0 -0 -14 -1 -2 -0 -0 -0 -18 -114 -28 -0 -0 -0 -0 -1 -12 -57 -112 -69 -10 -19 -0
-75 -51 -26 -9 -7 -12 -28 -3 -13 -1 -0 -1 -9 -2 -0 -1 -0 -0 -0 -0 -0 -0 -0 -1 -0 -0 -0 -0 -0 -0 -38 -0 -0 -0 -0 -6 -1 -1 -13 -36 -3 -15 -30
-51 -65 -65 -4 -5 -13 -30 -53 -0 -0 -0 -0 -0 -3 -0 -1 -1 -1 -1 -0 -0 -0 -0 -0 -0 -0 -0 -0 -0 -0 -0 -0 -0 -0 -1 -3 -0 -3 -2 -0 -10 -6 -5
Wind_Speed
17 16 11 9 9 10 12 12 11 11 12 11 8 10 2 7 9 9 10 12 13 11 10 9 14 13 12 14 14 15 14 15 15 15 15 15 12 11 9 12 12 15 13
22 17 11 10 10 10 12 12 12 12 12 11 9 9 7 8 8 9 10 12 12 13 13 15 14 13 15 14 13 13 14 13 15 16 16 14 11 10 9 12 17 13 12
20 18 14 10 12 11 11 12 12 12 11 11 10 9 9 9 9 9 10 11 12 13 13 14 14 15 14 14 12 12 12 11 12 16 15 10 12 12 13 16 15 15 12
18 16 16 11 11 12 11 11 11 10 11 10 9 10 9 8 10 11 12 12 13 13 13 14 14 14 13 11 12 11 8 7 7 8 2 13 13 11 12 15 14 13 12
16 18 16 13 12 12 11 9 9 9 9 9 8 9 9 9 10 11 12 14 14 13 14 13 14 13 12 12 11 10 5 5 7 9 6 10 10 10 11 12 11 14 9
16 21 15 13 13 10 10 10 9 9 8 9 9 9 9 9 11 11 13 12 14 13 14 12 13 12 13 12 10 8 3 5 10 8 10 7 14 10 10 12 13 12 10
20 17 15 12 11 11 9 7 8 10 10 11 9 10 11 10 11 11 12 14 12 13 11 14 13 12 12 11 10 6 1 8 9 8 6 13 11 10 11 11 11 10 9
17 18 14 11 10 10 9 9 8 11 12 11 11 10 11 10 11 9 12 12 11 12 10 11 10 9 11 11 10 5 4 9 6 8 8 11 8 9 11 11 10 10 8
16 17 14 14 11 9 7 8 9 10 11 10 11 10 10 11 11 9 11 10 11 10 9 10 10 8 10 11 10 6 3 6 4 4 6 9 6 9 8 8 8 8 7
12 14 13 14 12 11 11 7 8 9 10 11 9 9 11 11 10 9 11 9 9 10 12 10 9 10 12 10 9 7 8 6 2 8 3 8 9 7 7 8 6 6 6
10 12 15 14 9 8 11 9 9 8 9 12 10 9 9 8 10 11 11 11 9 10 10 9 9 11 11 9 7 9 9 1 4 7 9 12 8 6 7 6 6 6 6
12 12 11 13 14 13 11 10 7 10 9 8 9 9 8 4 8 13 11 9 9 9 9 8 8 10 12 6 6 8 6 6 2 1 8 11 7 6 6 7 4 6 5
13 10 9 10 8 10 10 8 7 5 6 1 7 6 4 5 6 4 8 8 9 12 8 10 7 4 6 2 4 3 5 4 4 3 11 10 5 5 5 5 5 4 5
14 11 12 12 5 10 7 8 5 7 7 6 5 4 6 3 6 4 2 3 3 6 4 3 7 1 4 3 3 3 4 4 6 2 10 12 6 4 5 4 4 4 3
13 12 12 13 5 6 6 6 9 7 10 9 9 7 6 3 3 5 3 1 2 5 6 3 6 4 2 6 6 6 8 7 8 6 4 9 8 4 2 3 4 4 4
11 12 13 12 9 9 4 3 3 6 9 9 6 6 2 4 4 4 4 4 3 4 6 8 3 2 3 3 4 6 6 6 5 5 3 4 8 6 5 3 3 4 5
10 12 13 11 12 9 7 6 5 4 6 5 9 9 6 3 5 3 4 2 4 4 7 5 6 4 5 0 4 0 4 3 2 2 2 2 4 5 9 8 5 5 5
11 11 10 9 13 10 9 7 6 5 6 6 7 8 7 6 5 5 4 5 3 3 5 4 4 3 2 3 1 1 2 3 4 3 4 2 3 3 6 8 9 4 7
11 11 10 9 8 12 7 7 5 6 5 4 2 6 9 7 6 4 4 3 4 4 2 2 1 2 3 5 4 2 3 5 5 5 1 6 4 5 4 7 7 7 9
12 12 12 10 9 9 8 5 6 6 6 6 7 4 9 7 8 8 4 2 5 4 4 3 3 3 3 4 3 4 7 7 7 6 4 3 4 1 5 4 4 5 11
14 13 13 12 11 9 8 8 7 7 6 5 2 5 7 5 7 7 4 8 8 6 5 4 6 6 4 3 3 2 8 7 5 7 8 8 7 7 5 6 5 3 4
16 15 14 14 12 11 9 8 7 7 7 6 6 6 7 8 7 6 8 6 7 4 5 6 6 5 4 5 2 1 1 2 1 5 2 4 8 6 7 9 10 8 6
17 17 15 15 15 13 10 8 6 6 4 7 6 6 9 8 9 8 8 8 5 4 6 6 7 7 4 4 3 2 1 2 3 3 5 6 6 6 5 8 8 9 9
17 17 17 16 15 14 13 11 10 9 8 5 7 9 6 11 10 9 9 8 6 7 1 6 7 5 5 5 3 6 8 6 3 2 4 6 5 7 9 7 10 9 11
20 17 17 16 15 14 14 12 10 10 8 6 5 5 7 5 9 9 10 9 8 7 8 5 3 5 5 5 6 4 7 6 7 6 5 4 3 7 7 9 6 7 10
18 18 18 16 16 15 15 16 13 12 11 8 8 6 7 8 8 11 11 9 8 8 9 6 7 7 6 7 7 6 7 6 4 5 5 4 6 6 8 8 7 10 8
Wind_Direction
131 123 123 112 102 97 96 107 105 104 103 94 76 83 64 59 81 94 108 101 102 106 97 104 119 108 112 111 106 103 101 102 104 107 109 105 108 121 110 137 136 107 108
116 127 129 116 105 106 103 107 109 110 115 118 109 89 84 78 71 86 98 98 99 100 101 101 115 122 110 108 109 106 113 116 119 116 113 107 101 93 106 77 82 110 109
120 125 129 117 109 107 104 107 110 117 113 105 98 88 78 83 85 92 96 97 96 99 97 104 115 105 111 112 111 112 115 134 141 147 143 103 99 87 92 93 109 116 118
126 138 124 123 112 109 109 112 116 116 112 100 90 86 80 88 88 89 87 97 103 105 103 98 100 99 98 108 106 112 123 133 137 166 173 121 99 88 86 111 112 113 111
136 114 116 127 118 115 111 111 120 127 121 111 98 80 79 89 88 90 99 100 98 99 100 98 97 101 102 100 109 100 131 150 159 219 180 77 91 101 103 114 121 132 132
132 101 126 130 127 120 113 112 116 127 129 126 110 97 92 98 96 97 97 99 105 104 106 106 101 104 100 106 111 108 59 348 296 50 97 70 77 108 106 84 95 98 103
112 120 129 127 124 120 116 116 123 125 127 129 112 102 101 94 101 102 106 111 112 111 112 99 97 99 102 102 98 100 335 302 45 44 83 84 93 110 106 106 110 113 119
122 131 131 132 129 123 121 128 122 114 109 118 110 110 104 99 103 109 105 108 108 106 103 108 110 109 108 105 103 99 336 333 141 90 85 86 102 105 103 105 102 108 108
118 114 137 134 129 124 127 129 121 130 130 119 113 111 111 106 101 110 109 104 103 111 117 112 114 121 122 116 111 112 303 315 153 68 114 112 97 100 101 103 111 110 107
130 136 134 136 149 162 151 131 134 128 135 132 122 124 124 119 120 132 126 105 109 101 109 102 110 123 124 119 129 152 216 233 189 121 11 93 94 103 105 98 98 115 109
145 140 141 138 134 128 130 133 138 131 129 134 141 150 166 143 154 140 86 116 111 103 108 105 117 127 129 130 149 196 217 162 200 86 96 109 112 112 114 101 99 95 96
148 154 127 129 148 173 131 164 140 147 154 167 145 169 210 155 55 99 105 128 129 129 133 147 154 147 177 152 169 209 238 103 253 99 104 114 126 129 115 108 114 105 102
154 140 144 125 185 156 122 162 165 136 110 280 147 168 139 127 163 178 139 165 158 180 176 179 170 180 168 12 177 257 161 150 156 96 116 115 127 137 115 138 131 127 124
149 150 163 136 192 118 160 133 178 161 142 142 183 169 152 204 109 128 55 165 214 145 197 203 137 95 72 106 71 112 315 142 31 32 127 126 139 152 146 156 157 154 142
156 157 151 136 169 112 175 151 169 126 146 154 182 188 91 209 161 188 127 236 323 123 129 144 60 3 116 59 37 38 353 32 357 23 94 132 120 113 144 191 185 186 164
161 159 138 146 156 150 187 169 142 165 146 167 104 144 170 239 164 124 189 207 159 168 135 108 133 185 58 25 63 17 15 21 15 12 68 134 145 179 210 233 247 216 228
173 156 142 162 159 157 146 186 206 188 155 162 136 151 199 171 171 218 197 210 294 104 118 164 186 148 162 292 118 197 237 132 49 336 152 155 161 191 212 212 237 273 232
175 157 161 181 162 172 168 183 202 214 165 170 140 153 184 206 175 213 197 166 221 149 224 201 165 158 276 122 139 204 283 288 175 174 228 181 171 167 266 221 219 251 292
176 165 175 180 181 154 156 172 229 168 241 125 166 151 176 186 179 235 226 246 165 209 193 181 190 134 152 190 180 224 264 271 220 201 192 149 249 218 204 247 212 201 239
170 167 173 182 180 168 160 211 196 179 215 182 169 158 167 203 177 225 170 180 218 259 203 93 251 184 207 204 118 219 231 238 242 230 187 178 187 19 149 239 230 199 220
171 170 176 187 178 182 188 192 197 200 201 191 176 142 157 230 160 223 235 173 213 216 233 227 221 244 210 155 172 240 245 229 248 236 198 201 178 199 199 203 238 220 206
177 180 179 185 182 195 192 201 199 206 190 204 185 165 182 233 247 206 250 263 202 263 183 226 234 227 229 197 184 131 284 247 333 250 100 151 202 186 212 219 224 220 208
186 187 183 188 186 196 204 197 193 204 245 189 214 200 195 216 234 226 238 268 296 272 222 222 230 231 223 202 171 229 237 218 240 152 209 212 206 179 212 224 218 222 217
196 187 190 190 191 195 208 192 199 202 199 209 200 208 209 192 221 224 240 244 260 261 198 215 215 229 210 218 196 236 268 292 243 271 192 193 208 178 202 210 227 222 228
191 190 190 190 192 198 195 227 193 228 207 217 203 195 201 192 207 230 226 213 243 240 261 278 258 215 232 218 232 183 236 249 256 244 280 175 192 217 214 211 221 205 209
191 193 192 182 192 198 197 207 217 201 233 228 208 186 215 208 202 203 217 217 219 237 254 242 256 252 230 256 243 245 247 244 230 226 238 266 250 230 224 218 216 234 204